This demonstration page uses our WeatherBlox Daily Observations layout. Learn more.

Left ArrowRight Arrow

38.89511, -77.03637

Hourly Observations for January 17, 2016

Temp ( °F °C ) Dew Point ( °F °C ) Humidity (%) Winds ( mph kmh ) Pressure ( in mb ) Visibility ( mi km ) Precip ( " mm )
12:52 am 00:52 Cloudy 37 2.8 28 -2.2 70 70 NNW 7 11 29.86 1011 10 16 0.00 0.00
1:52 am 01:52 Cloudy 37 2.8 28 -2.2 70 70 NNW 5 7 29.87 1012 10 16 0.00 0.00
2:52 am 02:52 Cloudy 37 2.8 27 -2.8 67 67 NNW 6 9 29.88 1012 10 16 0.00 0.00
3:52 am 03:52 Cloudy 37 2.8 26 -3.3 65 65 N 5 7 29.88 1012 10 16 0.00 0.00
4:52 am 04:52 Cloudy 37 2.8 25 -3.9 62 62 N 10 17 29.85 1011 10 16 0.00 0.00
5:52 am 05:52 Cloudy 37 2.8 27 -2.8 67 67 N 9 15 29.87 1012 10 16 0.00 0.00
6:52 am 06:52 Cloudy 37 2.8 26 -3.3 65 65 NNE 10 17 29.87 1011 10 16 0.00 0.00
7:52 am 07:52 Cloudy 37 2.8 26 -3.3 65 65 N 7 11 29.88 1012 10 16 0.00 0.00
8:52 am 08:52 Cloudy 37 2.8 27 -2.8 67 67 E 7 11 29.91 1013 10 16 0.00 0.00
9:52 am 09:52 Cloudy 37 2.8 27 -2.8 67 67 NE 6 9 29.89 1012 10 16 0.00 0.00
10:52 am 10:52 Cloudy with Light Snow 36 2.2 27 -2.8 70 70 SE 7 11 29.89 1012 10 16 0.00 0.03
11:08 am 11:08 Cloudy with Light Snow 36 2 28 -2 75 75 SSE 6 9 29.88 1012 9 14 0.00 0.00
11:16 am 11:16 Cloudy with Light Snow 36 2 28 -2 75 75 VRB 6 9 29.88 1012 6 10 0.00 0.00
11:23 am 11:23 Cloudy with Light Snow 35 1.7 29 -1.7 78 78 SSE 8 13 29.88 1012 3 5 0.00 0.03
11:32 am 11:32 Cloudy with Light Snow 34 1 30 -1 87 87 SSE 7 11 29.88 1012 3 4 0.00 0.00
11:38 am 11:38 Cloudy with Light Snow 34 1 30 -1 87 87 SSE 6 9 29.88 1012 2 3 0.00 0.00
11:44 am 11:44 Cloudy with Light Snow 34 1 30 -1 87 87 SSE 6 9 29.88 1012 2 2 0.00 0.00
11:52 am 11:52 Cloudy with Light Snow 33 0.6 30 -1.1 89 89 SSE 7 11 29.87 1012 2 3 0.00 0.03
12:21 pm 12:21 Cloudy with Light Snow 33 0.6 31 -0.6 92 92 SSE 5 7 29.85 1011 2 2 0.00 0.03
12:42 pm 12:42 Cloudy with Light Snow 34 1 30 -1 87 87 Calm 29.85 1011 1 1 0.00 0.00
12:52 pm 12:52 Cloudy with Snow 33 0.6 31 -0.6 92 92 Calm 29.84 1011 1 1 0.02 0.51
1:20 pm 13:20 Cloudy with Light Snow 34 1 30 -1 87 87 Calm 29.83 1010 1 1 0.00 0.00
1:27 pm 13:27 Cloudy with Light Snow 33 0.6 31 -0.6 92 92 Calm 29.83 1010 1 1 0.02 0.51
1:52 pm 13:52 Cloudy with Light Snow 33 0.6 31 -0.6 92 92 NNE 3 6 29.81 1009 1 2 0.03 0.76
2:12 pm 14:12 Cloudy with Light Snow 34 1 30 -1 87 87 NNE 3 6 29.80 1009 2 2 0.00 0.00
2:18 pm 14:18 Cloudy with Light Snow 34 1 30 -1 87 87 NNE 5 7 29.80 1009 3 5 0.00 0.00
2:26 pm 14:26 Cloudy with Light Snow 34 1.1 31 -0.6 89 89 NE 3 6 29.80 1009 4 6 0.00 0.03
2:44 pm 14:44 Cloudy with Light Snow 36 2 32 0 87 87 NNW 7 11 29.80 1009 5 8 0.00 0.00
2:52 pm 14:52 Cloudy with Light Snow 35 1.7 31 -0.6 85 85 N 7 11 29.79 1009 6 10 0.00 0.03
3:09 pm 15:09 Cloudy 35 1.7 32 0 89 89 N 6 9 29.80 1009 8 13 0.00 0.03
3:49 pm 15:49 Mostly Cloudy 36 2 30 -1 81 81 N 8 13 29.80 1009 10 16 0.00 0.03
3:52 pm 15:52 Mostly Cloudy 36 2.2 31 -0.6 82 82 N 7 11 29.78 1009 10 16 0.00 0.03
4:05 pm 16:05 Partly Cloudy 36 2.2 29 -1.7 76 76 NNW 8 13 29.77 1008 10 16 0.00 0.00
4:39 pm 16:39 Mostly Cloudy 36 2.2 30 -1.1 79 79 NW 7 11 29.77 1008 10 16 0.00 0.00
4:41 pm 16:41 Mostly Cloudy 36 2.2 30 -1.1 79 79 NNW 8 13 29.77 1008 10 16 0.00 0.00
4:52 pm 16:52 Mostly Cloudy 36 2.2 30 -1.1 79 79 NNW 8 13 29.78 1008 10 16 0.00 0.00
5:52 pm 17:52 Cloudy 36 2.2 29 -1.7 76 76 NNW 9 15 29.79 1009 10 16 0.00 0.00
6:52 pm 18:52 Cloudy 36 2.2 29 -1.7 76 76 NW 6 9 29.80 1009 10 16 0.00 0.00
7:52 pm 19:52 Cloudy 36 2.2 29 -1.7 76 76 W 5 7 29.81 1010 10 16 0.00 0.00
8:52 pm 20:52 Partly Cloudy 35 1.7 29 -1.7 78 78 SW 5 7 29.81 1010 10 16 0.00 0.00
9:52 pm 21:52 Mostly Clear 35 1.7 28 -2.2 76 76 W 6 9 29.82 1010 10 16 0.00 0.00
10:52 pm 22:52 Mostly Clear 34 1.1 28 -2.2 79 79 WSW 9 15 29.81 1010 10 16 0.00 0.00
11:52 pm 23:52 Mostly Clear 33 0.6 28 -2.2 82 82 WSW 7 11 29.82 1010 10 16 0.00 0.00

Powered by AerisWeather